| time (UTC) | temp C | wind direction | speed KPH | gust KPH | rain 1hr cm | rain 24hr cm | rain mn cm | humidity % | barometer mb |
| 20260510041555 | 8 | 0 | 0.0 | 4.8 | 0.00 | 0.00 | 0.00 | 87 | 1013.8 |
| 20260510040057 | 9 | 91 | 0.0 | 1.6 | 0.00 | 0.00 | 0.00 | 88 | 1013.9 |
| 20260510034553 | 9 | 0 | 0.0 | 0.0 | 0.00 | 0.00 | 0.00 | 87 | 1013.9 |
| 20260510033053 | 9 | 0 | 0.0 | 1.6 | 0.00 | 0.00 | 0.00 | 87 | 1014.1 |
| 20260510031555 | 9 | 0 | 0.0 | 1.6 | 0.00 | 0.00 | 0.00 | 87 | 1014.2 |
| 20260510030047 | 9 | 0 | 0.0 | 3.2 | 0.00 | 0.00 | 0.00 | 87 | 1014.2 |
| 20260510024548 | 9 | 0 | 0.0 | 1.6 | 0.00 | 0.00 | 0.00 | 87 | 1014.1 |
| 20260510023049 | 9 | 0 | 0.0 | 3.2 | 0.00 | 0.00 | 0.00 | 87 | 1014.2 |
| 20260510021549 | 9 | 323 | 0.0 | 4.8 | 0.00 | 0.00 | 0.00 | 87 | 1014.2 |
| 20260510020158 | 9 | 0 | 1.6 | 4.8 | 0.00 | 0.00 | 0.00 | 87 | 1014.1 |
| 20260510014559 | 9 | 0 | 0.0 | 3.2 | 0.00 | 0.00 | 0.00 | 87 | 1013.9 |
| 20260510013127 | 9 | 0 | 0.0 | 3.2 | 0.00 | 0.00 | 0.00 | 87 | 1014.0 |
| 20260510013055 | 9 | 0 | 0.0 | 3.2 | 0.00 | 0.00 | 0.00 | 87 | 1014.0 |
| 20260510011546 | 9 | 261 | 0.0 | 9.7 | 0.00 | 0.00 | 0.00 | 87 | 1014.0 |
| 20260510010043 | 9 | 0 | 0.0 | 0.0 | 0.00 | 0.00 | 0.00 | 87 | 1013.9 |
| 20260510004550 | 9 | 0 | 0.0 | 3.2 | 0.00 | 0.00 | 0.00 | 87 | 1014.1 |
| 20260510003049 | 10 | 0 | 0.0 | 3.2 | 0.00 | 0.00 | 0.00 | 87 | 1014.2 |
| 20260510001552 | 10 | 0 | 0.0 | 6.4 | 0.00 | 0.00 | 0.00 | 87 | 1014.2 |
| 20260510000051 | 9 | 229 | 1.6 | 4.8 | 0.00 | 0.00 | 0.00 | 86 | 1014.3 |
| 20260509234550 | 9 | 0 | 0.0 | 4.8 | 0.00 | 0.00 | 0.00 | 87 | 1014.3 |
| 20260509233053 | 10 | 0 | 0.0 | 3.2 | 0.00 | 0.00 | 0.00 | 87 | 1014.4 |
| 20260509231549 | 10 | 0 | 0.0 | 4.8 | 0.00 | 0.00 | 0.00 | 87 | 1014.8 |
| 20260509230052 | 10 | 0 | 0.0 | 4.8 | 0.00 | 0.00 | 0.00 | 86 | 1014.9 |
| 20260509224600 | 10 | 207 | 0.0 | 4.8 | 0.00 | 0.00 | 0.00 | 86 | 1014.9 |
| 20260509223050 | 10 | 0 | 0.0 | 3.2 | 0.00 | 0.00 | 0.00 | 86 | 1015.0 |
| 20260509221603 | 10 | 0 | 1.6 | 9.7 | 0.00 | 0.00 | 0.00 | 85 | 1014.9 |
| 20260509220048 | 10 | 0 | 0.0 | 6.4 | 0.00 | 0.00 | 0.00 | 84 | 1014.8 |
| 20260509214556 | 10 | 0 | 0.0 | 12.9 | 0.00 | 0.00 | 0.00 | 82 | 1014.9 |
| 20260509213053 | 11 | 248 | 4.8 | 12.9 | 0.00 | 0.00 | 0.00 | 79 | 1014.7 |
| 20260509211558 | 11 | 0 | 1.6 | 12.9 | 0.00 | 0.00 | 0.00 | 78 | 1014.4 |
| 20260509210054 | 11 | 0 | 0.0 | 6.4 | 0.00 | 0.00 | 0.00 | 79 | 1014.3 |
| 20260509204556 | 11 | 0 | 1.6 | 8.0 | 0.00 | 0.00 | 0.00 | 78 | 1014.2 |
| 20260509203049 | 11 | 0 | 3.2 | 9.7 | 0.00 | 0.00 | 0.00 | 79 | 1014.2 |
| 20260509201555 | 11 | 256 | 1.6 | 8.0 | 0.00 | 0.00 | 0.00 | 81 | 1013.9 |
| 20260509200059 | 11 | 305 | 0.0 | 9.7 | 0.00 | 0.00 | 0.00 | 82 | 1013.7 |
| 20260509194546 | 11 | 218 | 1.6 | 6.4 | 0.00 | 0.00 | 0.00 | 82 | 1013.4 |
| 20260509193044 | 11 | 215 | 3.2 | 8.0 | 0.00 | 0.00 | 0.00 | 82 | 1013.1 |
| 20260509191549 | 11 | 216 | 3.2 | 8.0 | 0.00 | 0.00 | 0.00 | 80 | 1013.0 |
| 20260509190106 | 12 | 207 | 1.6 | 11.3 | 0.00 | 0.00 | 0.00 | 78 | 1013.0 |
| 20260509184547 | 12 | 242 | 3.2 | 11.3 | 0.00 | 0.00 | 0.00 | 77 | 1012.9 |
| 20260509183048 | 12 | 0 | 1.6 | 6.4 | 0.00 | 0.00 | 0.00 | 77 | 1012.8 |
| 20260509181550 | 12 | 0 | 3.2 | 12.9 | 0.00 | 0.00 | 0.00 | 76 | 1012.3 |
| 20260509180052 | 12 | 299 | 4.8 | 14.5 | 0.00 | 0.00 | 0.00 | 75 | 1012.2 |
| 20260509174547 | 12 | 286 | 3.2 | 12.9 | 0.00 | 0.00 | 0.00 | 74 | 1012.4 |
| 20260509173050 | 13 | 326 | 4.8 | 14.5 | 0.00 | 0.00 | 0.00 | 72 | 1012.5 |
| 20260509171548 | 13 | 328 | 4.8 | 16.1 | 0.00 | 0.00 | 0.00 | 68 | 1012.6 |
| 20260509170047 | 13 | 215 | 9.7 | 22.5 | 0.00 | 0.00 | 0.00 | 66 | 1012.8 |
| 20260509164551 | 13 | 210 | 6.4 | 19.3 | 0.00 | 0.00 | 0.00 | 65 | 1012.9 |
| 20260509163052 | 14 | 264 | 6.4 | 19.3 | 0.00 | 0.00 | 0.00 | 65 | 1012.9 |
| 20260509161557 | 14 | 360 | 4.8 | 16.1 | 0.00 | 0.00 | 0.00 | 64 | 1012.9 |
| 20260509160050 | 14 | 250 | 6.4 | 14.5 | 0.00 | 0.00 | 0.00 | 64 | 1012.8 |
| 20260509154555 | 14 | 200 | 3.2 | 8.0 | 0.00 | 0.00 | 0.00 | 66 | 1012.6 |
| 20260509153057 | 14 | 317 | 1.6 | 9.7 | 0.00 | 0.00 | 0.00 | 67 | 1012.3 |
| 20260509151555 | 14 | 321 | 1.6 | 9.7 | 0.00 | 0.00 | 0.00 | 66 | 1012.3 |
| 20260509150051 | 14 | 290 | 3.2 | 12.9 | 0.00 | 0.00 | 0.00 | 65 | 1012.6 |
| 20260509144558 | 14 | 273 | 3.2 | 12.9 | 0.00 | 0.00 | 0.00 | 67 | 1012.7 |
| 20260509143052 | 13 | 265 | 8.0 | 14.5 | 0.00 | 0.00 | 0.00 | 66 | 1013.0 |
| 20260509141551 | 13 | 307 | 6.4 | 16.1 | 0.00 | 0.00 | 0.00 | 66 | 1013.2 |
| 20260509140100 | 14 | 0 | 3.2 | 17.7 | 0.00 | 0.00 | 0.00 | 64 | 1013.6 |
| 20260509134624 | 14 | 307 | 3.2 | 14.5 | 0.00 | 0.00 | 0.00 | 66 | 1013.7 |
| 20260509133057 | 14 | 274 | 4.8 | 16.1 | 0.00 | 0.00 | 0.00 | 64 | 1013.5 |
| 20260509131554 | 14 | 294 | 6.4 | 17.7 | 0.00 | 0.00 | 0.00 | 61 | 1013.6 |
| 20260509130057 | 14 | 200 | 8.0 | 17.7 | 0.00 | 0.00 | 0.00 | 60 | 1013.6 |
| 20260509124549 | 14 | 208 | 6.4 | 19.3 | 0.00 | 0.00 | 0.00 | 61 | 1013.8 |
| 20260509123051 | 14 | 228 | 4.8 | 22.5 | 0.00 | 0.00 | 0.00 | 61 | 1014.0 |
| 20260509121553 | 15 | 228 | 8.0 | 20.9 | 0.00 | 0.00 | 0.00 | 58 | 1014.2 |
| 20260509120050 | 15 | 329 | 8.0 | 17.7 | 0.00 | 0.00 | 0.00 | 57 | 1014.1 |
| 20260509114552 | 15 | 306 | 3.2 | 14.5 | 0.00 | 0.00 | 0.00 | 58 | 1013.8 |
| 20260509113057 | 15 | 330 | 3.2 | 11.3 | 0.00 | 0.00 | 0.00 | 60 | 1013.9 |
| 20260509111552 | 15 | 268 | 6.4 | 14.5 | 0.00 | 0.00 | 0.00 | 61 | 1014.5 |
| 20260509110057 | 14 | 196 | 6.4 | 22.5 | 0.00 | 0.00 | 0.00 | 62 | 1014.6 |
| 20260509104550 | 14 | 266 | 4.8 | 12.9 | 0.00 | 0.00 | 0.00 | 62 | 1014.9 |
| 20260509103058 | 14 | 273 | 4.8 | 17.7 | 0.00 | 0.00 | 0.00 | 63 | 1015.0 |
| 20260509101551 | 13 | 0 | 4.8 | 14.5 | 0.00 | 0.00 | 0.00 | 64 | 1015.1 |
| 20260509100048 | 13 | 167 | 0.0 | 9.7 | 0.00 | 0.00 | 0.00 | 65 | 1014.7 |
| 20260509094551 | 13 | 258 | 0.0 | 3.2 | 0.00 | 0.00 | 0.00 | 66 | 1014.7 |
| 20260509093046 | 12 | 28 | 1.6 | 11.3 | 0.00 | 0.00 | 0.00 | 68 | 1014.6 |
| 20260509091555 | 12 | 248 | 0.0 | 12.9 | 0.00 | 0.00 | 0.00 | 69 | 1014.9 |
| 20260509090054 | 11 | 317 | 1.6 | 6.4 | 0.00 | 0.00 | 0.00 | 70 | 1014.9 |
| 20260509084554 | 11 | 303 | 3.2 | 8.0 | 0.00 | 0.00 | 0.00 | 72 | 1015.0 |
| 20260509083053 | 11 | 269 | 3.2 | 11.3 | 0.00 | 0.00 | 0.00 | 72 | 1015.0 |
| 20260509081550 | 11 | 262 | 3.2 | 6.4 | 0.00 | 0.00 | 0.00 | 71 | 1015.0 |
| 20260509080052 | 10 | 0 | 1.6 | 4.8 | 0.00 | 0.00 | 0.00 | 73 | 1015.0 |
| 20260509074602 | 10 | 0 | 0.0 | 0.0 | 0.00 | 0.00 | 0.00 | 76 | 1015.2 |
| 20260509073058 | 9 | 0 | 0.0 | 0.0 | 0.00 | 0.00 | 0.00 | 78 | 1015.1 |
| 20260509071604 | 9 | 0 | 0.0 | 1.6 | 0.00 | 0.00 | 0.00 | 80 | 1015.3 |
| 20260509070051 | 8 | 0 | 0.0 | 3.2 | 0.00 | 0.00 | 0.00 | 81 | 1015.9 |
| 20260509064559 | 8 | 0 | 0.0 | 1.6 | 0.00 | 0.00 | 0.00 | 84 | 1016.2 |
| 20260509063050 | 7 | 0 | 0.0 | 1.6 | 0.00 | 0.00 | 0.00 | 84 | 1016.4 |
| 20260509061604 | 7 | 0 | 0.0 | 1.6 | 0.00 | 0.00 | 0.00 | 84 | 1016.3 |
| 20260509060048 | 7 | 0 | 0.0 | 0.0 | 0.00 | 0.00 | 0.00 | 84 | 1016.2 |
| 20260509054556 | 7 | 0 | 0.0 | 0.0 | 0.00 | 0.00 | 0.00 | 84 | 1016.3 |
| 20260509053048 | 7 | 0 | 0.0 | 1.6 | 0.00 | 0.00 | 0.00 | 83 | 1016.1 |
| 20260509051551 | 7 | 0 | 0.0 | 6.4 | 0.00 | 0.00 | 0.00 | 83 | 1016.2 |
| 20260509050044 | 7 | 0 | 0.0 | 3.2 | 0.00 | 0.00 | 0.00 | 83 | 1016.0 |
| 20260509044550 | 7 | 0 | 0.0 | 1.6 | 0.00 | 0.00 | 0.00 | 83 | 1016.1 |
| 20260509043055 | 7 | 68 | 0.0 | 1.6 | 0.00 | 0.00 | 0.00 | 82 | 1016.1 |